CW2378 Weather Reports


time (UTC)temp
F
wind
direction
speed
knots
gust
knots
rain 1hr
in
rain 24hr
in
rain mn
in
humidity
%
barometer
mb
20260510190503 83 119 2.6 11.3 0.00 0.11 0.01 71 1014.2
20260510185005 84 117 6.1 10.4 0.00 0.16 0.01 70 1014.1
20260510184506 84 177 4.3 10.4 0.00 0.16 0.01 69 1014.0
20260510184005 84 159 3.5 9.6 0.00 0.16 0.01 70 1014.1
20260510183504 84 159 5.2 10.4 0.00 0.16 0.01 68 1014.1
20260510182506 84 181 2.6 7.8 0.00 0.16 0.01 70 1014.3
20260510182005 83 107 5.2 8.7 0.00 0.16 0.01 69 1014.4
20260510181505 83 150 2.6 8.7 0.00 0.16 0.01 71 1014.5
20260510180006 82 169 4.3 9.6 0.00 0.25 0.01 72 1014.8
20260510175505 82 67 3.5 8.7 0.00 0.25 0.01 73 1015.1
20260510175005 82 88 3.5 10.4 0.00 0.25 0.01 72 1015.0
20260510173006 82 83 2.6 8.7 0.00 0.25 0.01 74 1015.2
20260510172503 82 89 3.5 8.7 0.00 0.25 0.01 75 1015.2
20260510171505 81 63 2.6 10.4 0.00 0.25 0.01 74 1015.3
20260510171005 81 88 1.7 7.0 0.00 0.25 0.01 75 1015.3
20260510170504 81 46 2.6 7.8 0.00 0.25 0.01 76 1015.4
20260510165505 81 58 3.5 7.8 0.00 0.55 0.01 74 1015.4
20260510164501 81 108 0.9 7.8 0.00 0.55 0.01 76 1015.4
20260510164004 82 82 2.6 7.8 0.00 0.55 0.01 75 1015.4
20260510163504 81 63 2.6 6.1 0.00 0.55 0.01 78 1015.4
20260510163005 80 101 3.5 6.1 0.00 0.55 0.01 78 1015.4
20260510162505 80 69 2.6 8.7 0.00 0.55 0.01 80 1015.4
20260510162005 79 173 4.3 8.7 0.00 0.55 0.01 79 1015.4
20260510161501 79 43 2.6 6.1 0.00 0.55 0.01 79 1015.6
20260510160502 80 129 1.7 7.0 0.00 0.55 0.01 80 1015.4
20260510155505 78 54 1.7 8.7 0.00 0.77 0.01 83 1015.2
20260510155006 78 51 3.5 8.7 0.00 0.77 0.01 82 1015.2
20260510154506 78 90 3.5 7.8 0.00 0.77 0.01 83 1015.1
20260510154005 77 109 1.7 7.8 0.00 0.77 0.01 85 1015.2
20260510153505 77 134 2.6 9.6 0.00 0.77 0.01 85 1015.1
20260510153006 76 105 1.7 9.6 0.00 0.77 0.01 87 1015.3
20260510152505 76 55 4.3 8.7 0.00 0.77 0.01 88 1015.3
20260510152006 75 60 4.3 8.7 0.00 0.77 0.01 89 1015.3
20260510151505 75 30 4.3 8.7 0.00 0.77 0.01 89 1015.4
20260510151005 75 60 1.7 8.7 0.00 0.77 0.01 89 1015.4
20260510150006 74 21 3.5 8.7 0.00 0.77 0.01 93 1015.5
20260510145505 74 40 4.3 8.7 0.00 0.83 0.01 94 1015.5
20260510145005 73 43 2.6 8.7 0.00 0.83 0.01 95 1015.6
20260510144504 73 75 1.7 8.7 0.00 0.83 0.01 95 1015.5
20260510144005 72 67 5.2 8.7 0.00 0.83 0.01 96 1015.5
20260510143504 72 355 5.2 8.7 0.00 0.83 0.01 96 1015.4
20260510143006 72 56 3.5 7.8 0.00 0.83 0.01 96 1015.4
20260510142505 71 63 3.5 8.7 0.00 0.83 0.01 97 1015.3
20260510142005 71 94 3.5 8.7 0.00 0.83 0.01 97 1015.3
20260510141502 71 63 3.5 7.0 0.00 0.83 0.01 97 1015.3
20260510141005 71 32 3.5 8.7 0.00 0.83 0.01 97 1015.3
20260510140504 70 69 2.6 8.7 0.00 0.83 0.01 97 1015.2
20260510140006 70 59 2.6 10.4 0.00 0.83 0.01 97 1015.0
20260510135505 70 88 2.6 10.4 0.00 1.40 0.01 97 1015.1
20260510135005 70 89 1.7 4.3 0.00 1.40 0.01 97 1015.3
20260510134504 70 57 0.9 6.1 0.00 1.40 0.01 97 1015.2
20260510134005 70 56 2.6 6.1 0.00 1.40 0.01 97 1015.2
20260510133505 70 67 2.6 7.8 0.00 1.40 0.01 97 1015.2
20260510132006 69 59 0.9 5.2 0.00 1.40 0.01 97 1015.0
20260510131505 69 61 1.7 6.1 0.00 1.40 0.01 97 1014.9
20260510131005 69 54 3.5 6.1 0.00 1.40 0.01 97 1014.8
20260510130505 69 34 2.6 7.8 0.00 1.40 0.01 97 1014.8
20260510130007 68 55 4.3 7.8 0.00 1.40 0.01 97 1014.6
20260510125505 69 61 2.6 7.0 0.00 1.40 0.01 97 1014.5
20260510124505 68 28 2.6 5.2 0.00 1.40 0.01 97 1014.4
20260510124006 68 79 0.9 3.5 0.00 1.40 0.01 97 1014.3
20260510123502 68 79 0.9 4.3 0.00 1.40 0.01 97 1014.2
20260510123007 68 80 1.7 5.2 0.00 1.40 0.01 97 1014.0
20260510122501 68 80 0.9 5.2 0.00 1.40 0.01 97 1014.0
20260510122005 68 74 0.9 5.2 0.00 1.40 0.01 96 1013.9
20260510121503 68 74 1.7 6.1 0.00 1.40 0.01 97 1014.0
20260510121005 68 71 1.7 5.2 0.00 1.40 0.01 97 1013.8
20260510120005 67 65 0.9 4.3 0.00 1.40 0.01 97 1013.8
20260510115504 67 52 1.7 4.3 0.00 1.40 0.01 97 1013.8
20260510114501 67 68 0.0 3.5 0.00 1.40 0.01 96 1013.6
20260510114005 67 68 0.9 6.1 0.00 1.40 0.01 96 1013.6
20260510113005 67 85 0.9 5.2 0.00 1.40 0.01 96 1013.1
20260510112505 67 85 0.9 7.0 0.00 1.40 0.01 96 1013.2
20260510112006 67 83 3.5 7.0 0.00 1.40 0.01 96 1013.1
20260510111505 67 72 0.9 4.3 0.00 1.40 0.01 97 1013.0
20260510111005 67 70 1.7 4.3 0.00 1.40 0.01 97 1012.9
20260510110504 67 70 1.7 4.3 0.00 1.40 0.01 97 1012.9
20260510110005 67 72 1.7 4.3 0.00 1.41 0.01 97 1012.7
20260510105505 67 72 1.7 3.5 0.00 1.41 0.01 97 1012.7
20260510105005 67 71 0.9 3.5 0.00 1.41 0.01 97 1012.6
20260510104500 67 71 1.7 4.3 0.00 1.41 0.01 97 1012.5
20260510104005 67 69 0.0 4.3 0.00 1.41 0.01 97 1012.5
20260510103502 67 67 1.7 4.3 0.00 1.41 0.01 97 1012.3
20260510103004 67 66 1.7 3.5 0.00 1.41 0.01 97 1012.0
20260510102500 67 66 1.7 3.5 0.00 1.41 0.01 97 1012.1
20260510102005 67 64 0.0 0.9 0.01 1.41 0.01 97 1012.0
20260510101503 67 63 0.0 2.6 0.01 1.41 0.01 97 1012.0
20260510101004 67 63 0.9 2.6 0.01 1.41 0.01 97 1011.9
20260510100501 67 63 0.0 4.3 0.01 1.41 0.01 97 1011.8
20260510100007 67 63 0.0 4.3 0.01 1.41 0.01 97 1011.7
20260510095503 67 61 2.6 4.3 0.01 1.41 0.01 96 1011.7
20260510095005 67 57 1.7 4.3 0.01 1.41 0.01 96 1011.8
20260510094504 67 56 0.0 4.3 0.01 1.41 0.01 96 1011.8
20260510094005 67 49 0.0 0.0 0.01 1.41 0.01 97 1011.8
20260510093505 67 49 0.0 0.0 0.01 1.41 0.01 96 1011.8
20260510093006 67 50 0.0 0.0 0.01 1.41 0.01 96 1011.8
20260510092505 67 50 0.0 2.6 0.01 1.41 0.01 96 1011.7
20260510092005 67 46 0.0 3.5 0.00 1.40 0.00 97 1011.7
20260510091504 67 46 1.7 5.2 0.00 1.40 0.00 96 1011.6
20260510091005 67 42 1.7 5.2 0.00 1.40 0.00 96 1011.6
20260510090505 67 44 2.6 5.2 0.00 1.40 0.00 96 1011.5
20260510085501 67 43 2.6 3.5 0.00 1.40 0.00 97 1011.6
20260510085004 67 51 1.7 3.5 0.00 1.40 0.00 96 1011.6
20260510084500 66 50 1.7 5.2 0.00 1.40 0.00 97 1011.5
20260510084005 66 50 3.5 5.2 0.00 1.40 0.00 97 1011.6
20260510083505 65 55 1.7 4.3 0.00 1.40 0.00 97 1011.7
20260510083005 65 43 1.7 3.5 0.00 1.40 0.00 97 1011.6
20260510082500 64 42 0.0 3.5 0.00 1.40 0.00 96 1011.7
20260510081501 64 42 0.0 0.0 0.00 1.40 0.00 96 1011.4
20260510081005 64 42 0.0 0.0 0.00 1.40 0.00 96 1011.4
20260510080500 64 42 0.0 0.0 0.00 1.40 0.00 96 1011.3
20260510075005 65 42 0.0 0.0 0.00 1.40 0.00 96 1011.4
20260510074503 65 42 0.0 0.0 0.00 1.40 0.00 96 1011.4
20260510074005 65 42 0.0 0.0 0.00 1.40 0.00 96 1011.3
20260510073006 65 42 0.0 1.7 0.00 1.40 0.00 96 1011.2
20260510072501 65 42 0.9 1.7 0.00 1.40 0.00 96 1011.1
20260510072005 66 42 0.0 2.6 0.00 1.40 0.00 96 1011.0
20260510071505 66 42 0.0 3.5 0.00 1.40 0.00 96 1010.8
20260510071005 66 42 1.7 3.5 0.00 1.40 0.00 96 1010.9
20260510070500 66 36 0.0 0.0 0.00 1.40 0.00 96 1011.1
20260510070005 66 35 0.0 0.0 0.00 1.40 0.00 96 1011.2
20260510065004 65 36 0.0 0.0 0.00 1.40 0.00 96 1011.3
20260510064500 65 36 0.0 0.0 0.00 1.40 0.00 96 1011.2
20260510064005 65 36 0.0 0.0 0.00 1.40 0.00 96 1011.3
20260510063005 66 36 0.0 0.0 0.00 1.40 0.00 96 1011.1
20260510062501 66 36 0.0 3.5 0.00 1.40 0.00 96 1011.2
20260510062006 66 36 1.7 3.5 0.00 1.40 0.00 96 1011.0
20260510061500 66 36 2.6 3.5 0.00 1.40 0.00 96 1011.2
20260510061005 66 121 0.0 0.0 0.00 1.40 0.00 96 1011.2
20260510060500 66 122 0.0 0.0 0.00 1.40 0.00 96 1011.2
20260510060006 66 122 0.0 0.0 0.00 1.40 0.00 96 1011.3
20260510055504 66 122 0.0 0.0 0.00 1.40 0.00 96 1011.2
20260510055006 66 122 0.0 0.0 0.00 1.40 0.00 96 1011.3
20260510054505 66 122 0.0 0.0 0.00 1.40 0.00 96 1011.4
20260510053505 67 122 0.0 0.0 0.00 1.40 0.00 96 1010.9
20260510053006 67 122 0.0 0.0 0.00 1.40 0.00 96 1010.9
20260510052506 67 122 0.0 0.0 0.00 1.40 0.00 96 1010.9
20260510051505 67 122 0.0 5.2 0.00 1.40 0.00 96 1011.0
20260510051005 67 121 0.9 6.1 0.00 1.40 0.00 96 1010.8
20260510050505 67 127 2.6 6.1 0.00 1.40 0.00 96 1010.9
20260510050009 67 132 1.7 4.3 0.00 1.40 0.00 96 1011.1
20260510045504 67 139 0.9 2.6 0.00 1.40 1.40 96 1011.2
20260510045006 68 139 0.0 3.5 0.00 1.40 1.40 96 1011.1
20260510044505 68 138 0.9 3.5 0.00 1.40 1.40 96 1011.0
20260510044006 68 139 0.9 3.5 0.00 1.40 1.40 96 1010.9
20260510043505 68 136 0.9 6.1 0.00 1.40 1.40 96 1011.4
20260510043006 68 138 1.7 6.1 0.00 1.40 1.40 96 1011.4
20260510042505 68 132 1.7 4.3 0.00 1.40 1.40 96 1011.5
20260510042006 68 118 0.9 5.2 0.00 1.40 1.40 96 1011.5
20260510041505 68 157 0.9 7.8 0.00 1.40 1.40 96 1011.2
20260510041005 68 159 1.7 7.8 0.00 1.40 1.40 96 1010.9
20260510040504 68 153 3.5 8.7 0.00 1.40 1.40 96 1010.9
20260510040005 68 166 4.3 9.6 0.00 1.40 1.40 96 1010.9
20260510035505 67 144 5.2 9.6 0.00 1.40 1.40 97 1011.0
20260510035007 67 156 5.2 7.0 0.00 1.40 1.40 97 1011.3
20260510034505 67 162 4.3 7.8 0.00 1.40 1.40 96 1011.7
20260510034006 67 153 3.5 7.0 0.00 1.40 1.40 96 1011.8
20260510033504 67 171 3.5 7.0 0.00 1.40 1.40 96 1012.0
20260510033006 67 161 3.5 5.2 0.00 1.40 1.40 96 1012.1
20260510032006 67 179 2.6 3.5 0.00 1.40 1.40 96 1012.0
20260510031505 67 182 0.9 2.6 0.00 1.40 1.40 96 1012.1
20260510031005 67 182 0.9 2.6 0.00 1.40 1.40 96 1012.1
20260510030505 67 182 0.0 2.6 0.00 1.40 1.40 96 1012.1
20260510030006 67 182 0.0 0.0 0.00 1.40 1.40 96 1012.1
20260510025505 67 182 0.0 0.0 0.00 1.40 1.40 96 1012.2
20260510025006 67 182 0.0 0.9 0.00 1.40 1.40 96 1012.0
20260510024506 67 182 0.0 3.5 0.00 1.40 1.40 96 1012.1
20260510023505 67 183 2.6 4.3 0.00 1.40 1.40 96 1011.9
20260510023006 67 170 0.9 2.6 0.00 1.40 1.40 96 1011.7
20260510022505 67 170 1.7 2.6 0.00 1.40 1.40 96 1011.4
20260510022005 67 170 0.9 3.5 0.00 1.40 1.40 96 1011.5
20260510021506 67 170 1.7 3.5 0.00 1.40 1.40 96 1011.3
20260510020504 67 169 0.9 2.6 0.00 1.40 1.40 96 1011.4
20260510015505 67 176 0.0 3.5 0.00 1.40 1.40 96 1011.2
20260510015005 67 177 1.7 3.5 0.00 1.40 1.40 96 1011.4
20260510014505 67 159 1.7 5.2 0.00 1.40 1.40 96 1011.2
20260510014006 67 161 2.6 7.8 0.00 1.40 1.40 96 1011.2
20260510013505 67 156 2.6 7.8 0.00 1.40 1.40 96 1011.0
20260510012505 68 150 2.6 6.1 0.01 1.40 1.40 96 1010.9
20260510012007 68 174 3.5 6.1 0.01 1.40 1.40 96 1010.9
20260510011506 68 157 2.6 7.0 0.01 1.40 1.40 97 1010.8
20260510011006 68 159 3.5 7.8 0.01 1.40 1.40 96 1010.7
20260510010505 68 137 2.6 7.8 0.01 1.40 1.40 97 1010.7
20260510010005 68 122 2.6 7.8 0.01 1.40 1.40 97 1010.8
20260510005503 68 133 2.6 7.0 0.01 1.40 1.40 97 1010.8
20260510005005 68 146 2.6 7.8 0.01 1.40 1.40 97 1010.9
20260510004505 68 119 4.3 7.8 0.01 1.40 1.40 97 1010.9
20260510004004 68 165 2.6 7.0 0.01 1.40 1.40 97 1010.9
20260510003005 68 160 3.5 6.1 0.01 1.40 1.40 97 1010.8
20260510002504 68 155 2.6 5.2 0.00 1.39 1.39 97 1010.6
20260510001505 68 161 1.7 5.2 0.01 1.39 1.39 97 1010.7
20260510001005 68 162 2.6 5.2 0.01 1.39 1.39 97 1010.8
20260510000008 68 157 1.7 4.3 0.02 1.39 1.39 97 1010.7
20260509235505 68 157 1.7 5.2 0.03 1.39 1.39 97 1010.6
20260509235005 68 157 2.6 5.2 0.04 1.39 1.39 97 1010.9
20260509234505 68 159 1.7 5.2 0.04 1.39 1.39 97 1010.8
20260509234006 68 144 1.7 4.3 0.04 1.39 1.39 97 1010.7
20260509233504 68 139 2.6 7.8 0.04 1.39 1.39 97 1010.6
20260509233006 68 153 3.5 7.8 0.04 1.39 1.39 97 1010.7
20260509232505 68 154 2.6 6.1 0.04 1.39 1.39 97 1010.7
20260509232006 68 140 0.9 6.1 0.04 1.39 1.39 97 1010.7
20260509231506 68 150 1.7 5.2 0.03 1.38 1.38 97 1011.0
20260509230504 68 153 0.9 7.8 0.03 1.38 1.38 97 1010.9
20260509230007 68 180 2.6 7.8 0.02 1.37 1.37 97 1010.8
20260509225506 68 186 3.5 7.8 0.01 1.37 1.36 97 1010.8
20260509225006 68 175 4.3 7.8 0.00 1.36 1.35 97 1011.0
20260509224505 68 182 2.6 5.2 0.01 1.36 1.35 97 1010.9
20260509224005 68 171 2.6 5.2 0.01 1.36 1.35 97 1010.5
20260509223505 68 169 2.6 5.2 0.01 1.36 1.35 97 1010.5
20260509223005 68 167 2.6 6.1 0.01 1.36 1.35 97 1010.5
20260509222505 68 187 3.5 5.2 0.01 1.36 1.35 97 1010.5
20260509222005 69 184 1.7 3.5 0.01 1.36 1.35 97 1010.2
20260509221505 69 191 0.9 2.6 0.01 1.36 1.35 97 1010.1
20260509221004 69 192 0.0 2.6 0.01 1.36 1.35 97 1010.0
20260509220505 69 192 1.7 2.6 0.01 1.36 1.35 97 1009.8
20260509220006 69 192 0.0 0.0 0.01 1.41 1.35 97 1010.1
20260509215005 68 192 0.0 4.3 0.01 1.41 1.35 97 1010.4
20260509214505 68 192 0.0 6.1 0.00 1.40 1.34 97 1010.4
20260509214005 68 198 2.6 6.1 0.00 1.40 1.34 97 1010.6
20260509213503 68 185 2.6 7.0 0.00 1.40 1.34 97 1010.6
20260509213006 68 192 4.3 8.7 0.00 1.40 1.34 97 1010.4
20260509212505 68 171 5.2 8.7 0.00 1.40 1.34 97 1010.1
20260509212004 68 167 4.3 7.8 0.00 1.40 1.34 97 1010.0
20260509211501 68 140 3.5 6.1 0.00 1.40 1.34 97 1010.0
20260509210504 68 150 2.6 7.8 0.00 1.40 1.34 97 1009.8
20260509210005 68 158 2.6 7.8 0.00 2.18 1.34 97 1009.7
20260509205005 68 122 1.7 6.1 0.01 2.18 1.34 97 1009.7
20260509204006 68 113 4.3 7.8 0.02 2.18 1.34 97 1009.9
20260509203501 69 167 3.5 7.8 0.02 2.18 1.34 97 1009.9
20260509203004 68 119 3.5 7.8 0.02 2.18 1.34 97 1009.9
20260509202004 68 121 2.6 3.5 0.03 2.18 1.34 97 1010.3
20260509201005 68 136 0.9 4.3 0.03 2.18 1.34 97 1010.9
20260509200503 67 136 1.7 4.3 0.04 2.18 1.34 97 1011.2
20260509200005 67 153 1.7 6.1 0.04 2.18 1.34 97 1011.5
20260509195500 67 147 3.5 6.1 0.05 2.18 1.34 97 1011.4
20260509195005 67 158 0.9 4.3 0.04 2.17 1.33 97 1011.2
20260509193500 67 159 1.7 4.3 0.04 2.16 1.32 97 1011.2
20260509193005 67 150 2.6 4.3 0.05 2.16 1.32 97 1011.4
20260509192505 67 142 0.9 1.7 0.05 2.15 1.31 97 1011.4
20260509192005 67 140 0.0 1.7 0.05 2.15 1.31 97 1011.6
20260509191504 67 140 0.0 1.7 0.05 2.15 1.31 97 1011.9
20260509191005 66 140 0.0 2.6 0.05 2.15 1.31 97 1012.1